Flag for Croatia Weather past 2 weeks in Zagreb, Croatia

Now
70 °F

Rain showers. Passing clouds.


Feels Like: 70 °F
Forecast: 64 / 82 °F
Wind: 3 mph from Northeast

Location: Zagreb / Pleso

Current Time: Jul 28, 2014 at 4:23:18 PM

Latest Report: Jul 28, 2014 at 4:00 PM


Visibility: N/A

Pressure: 29.83 "Hg

Humidity: 94%

Dew point: 68 °F

Location of ZagrebLocation

Historic Weather in Zagreb — Graph

°F

Zagreb temperature yesterday

Maximum temperature yesterday: 81 °F (at 5:00 PM)
Minimum temperature yesterday: 64 °F (at 12:00 AM)
Average temperature yesterday: 71 °F

Past Weeks' High & Low Weather Summary

 TemperatureHumidityPressure
High90 °F (Jul 20, 4:00 PM)100% (Jul 14, 2:00 AM)30.07 "Hg (Jul 14, 2:00 AM)
Low57 °F (Jul 24, 5:30 AM)35% (Jul 17, 4:30 PM)29.74 "Hg (Jul 22, 2:00 AM)
Average72 °F77%29.92 "Hg
* Reported Jul 13 3:00 PM — Jul 28 3:30 PM, Zagreb, Weather by CustomWeather, © 2014

Note: Actual official high and low records may vary slightly from our data, if they occured in-between our weather recording intervals... More about our weather records

Advertising

Zagreb weather history for previous 24 hours

 ConditionsComfort  
Time TempWeatherWind HumidityBarometerVisibility
3:30 PM
Jul 28
70 °FSprinkles. Passing clouds.5 mph94%29.83 "HgN/A
3:00 PM70 °FThunderstorms. Passing clouds.3 mph88%29.83 "HgN/A
2:30 PM70 °FRain. Passing clouds.3 mph94%29.83 "Hg4 mi
2:00 PM72 °FRain showers. More clouds than sun.3 mph88%29.83 "Hg4 mi
1:30 PM73 °FBroken clouds.6 mph83%29.83 "HgN/A
1:00 PM75 °FPartly sunny.2 mph74%29.83 "HgN/A
12:30 PM73 °FScattered clouds.5 mph83%29.86 "HgN/A
12:00 PM73 °FPartly sunny.3 mph78%29.86 "HgN/A
11:30 AM75 °FPartly sunny.2 mph74%29.86 "HgN/A
11:00 AM73 °FPartly sunny.2 mph78%29.86 "HgN/A
10:30 AM73 °FScattered clouds.2 mph83%29.86 "HgN/A
10:00 AM72 °FPassing clouds.5 mph88%29.86 "HgN/A
9:30 AM68 °FPartly sunny.2 mph94%29.86 "Hg5 mi
9:00 AM68 °FLow clouds.No wind94%29.86 "Hg4 mi
8:30 AM66 °FFog.No wind100%29.86 "Hg3 mi
8:00 AM66 °FFog.1 mph100%29.86 "Hg2 mi
7:30 AM64 °FFog.2 mph100%29.86 "Hg2 mi
7:00 AM64 °FFog.No wind100%29.86 "Hg1 mi
6:30 AM64 °FMild.No wind100%29.86 "Hg1 mi
6:00 AM63 °FFog.3 mph100%29.86 "Hg1 mi
5:30 AM64 °FPassing clouds.2 mph100%29.86 "Hg1 mi
4:30 AM64 °FFog.No wind100%29.86 "HgN/A
4:00 AM64 °FPassing clouds.1 mph100%29.86 "HgN/A
3:30 AM64 °FPassing clouds.3 mph100%29.86 "HgN/A
3:00 AM64 °FPassing clouds.1 mph100%29.86 "HgN/A
2:30 AM66 °FPassing clouds.2 mph94%29.86 "HgN/A
2:00 AM66 °FPassing clouds.2 mph94%29.86 "HgN/A
1:30 AM66 °FClear.2 mph94%29.86 "Hg10 mi
1:00 AM66 °FPassing clouds.5 mph94%29.86 "HgN/A
12:30 AM66 °FPassing clouds.3 mph94%29.86 "HgN/A
12:00 AM66 °FClear.3 mph94%29.86 "Hg10 mi
11:30 PM
Jul 27
66 °FPassing clouds.6 mph94%29.89 "HgN/A
11:00 PM66 °FPassing clouds.6 mph100%29.86 "HgN/A
10:30 PM66 °FLight rain. Passing clouds.3 mph100%29.89 "HgN/A
10:00 PM66 °FLight rain. Passing clouds.1 mph94%29.89 "HgN/A
9:30 PM68 °FThunderstorms. Partly sunny.7 mph88%29.89 "HgN/A
9:00 PM70 °FThundershowers. Broken clouds.9 mph83%29.89 "HgN/A
8:30 PM72 °FScattered clouds.7 mph83%29.86 "HgN/A
8:00 PM73 °FThunderstorms. Passing clouds.10 mph78%29.86 "HgN/A
7:30 PM77 °FScattered showers. Passing clouds.6 mph69%29.83 "HgN/A
7:00 PM77 °FScattered showers. Passing clouds.5 mph65%29.83 "HgN/A
6:30 PM79 °FScattered showers. Passing clouds.5 mph61%29.83 "HgN/A
6:00 PM81 °FPassing clouds.3 mph62%29.83 "HgN/A
5:30 PM79 °FPassing clouds.6 mph65%29.83 "HgN/A
5:00 PM81 °FSunny.2 mph58%29.83 "Hg10 mi
4:30 PM79 °FPassing clouds.1 mph61%29.86 "HgN/A
4:00 PM79 °FPassing clouds.2 mph61%29.86 "HgN/A
Weather by CustomWeather, © 2014

See weather overviewHow to use our weather pages